Port Orchard, Washington, United States (98366)
Lat: 47.54N, Lon: 122.64W
Wx Zone: WAZ508
Local Info
Past Weather Observations for Thursday, February 4, 2016

NOTE: This archive is for the closest National Weather Service station to Port Orchard. Information may differ from the station used for current weather conditions.

Click here for Long-term Archive

Time Weather Temperature Dewpoint Humidity Pressure Winds Precip Visibility
23:55
Overcast
45°F / 7°C 45°F / 7°C 100% 30.39 in
(1029 mb)
Calm - 1/2SM
23:35
Overcast
46°F / 8°C 46°F / 8°C 100% 30.39 in
(1029 mb)
Calm - 3/4SM
23:15
Mostly Cloudy
45°F / 7°C 45°F / 7°C 100% 30.39 in
(1029 mb)
Calm - 6SM
22:55
Partly Cloudy
45°F / 7°C 45°F / 7°C 100% 30.39 in
(1029 mb)
SSW 4.6 mph
(SSW 7 kph)
- 10SM
22:35
Partly Cloudy
45°F / 7°C 45°F / 7°C 100% 30.39 in
(1029 mb)
SW 4.6 mph
(SW 7 kph)
- 8SM
22:15
Mostly Cloudy
46°F / 8°C 46°F / 8°C 100% 30.39 in
(1029 mb)
S 4.6 mph
(S 7 kph)
- 10SM
21:55
Mostly Cloudy
46°F / 8°C 45°F / 7°C 93% 30.39 in
(1029 mb)
S 5.8 mph
(S 9 kph)
- 10SM
21:35
Mostly Cloudy
46°F / 8°C 45°F / 7°C 93% 30.39 in
(1029 mb)
S 4.6 mph
(S 7 kph)
- 10SM
21:15
Overcast
46°F / 8°C 45°F / 7°C 93% 30.42 in
(1030 mb)
S 6.9 mph
(S 11 kph)
- 10SM
20:55
Overcast
46°F / 8°C 46°F / 8°C 100% 30.39 in
(1029 mb)
SSE 5.8 mph
(SSE 9 kph)
- 10SM
20:35
Overcast
46°F / 8°C 46°F / 8°C 100% 30.42 in
(1030 mb)
S 6.9 mph
(S 11 kph)
- 10SM
20:15
Overcast
46°F / 8°C 45°F / 7°C 93% 30.42 in
(1030 mb)
S 5.8 mph
(S 9 kph)
- 5SM
19:55
Overcast
45°F / 7°C 45°F / 7°C 100% 30.42 in
(1030 mb)
SSE 4.6 mph
(SSE 7 kph)
- 1/4SM
19:35
Overcast
45°F / 7°C 45°F / 7°C 100% 30.42 in
(1030 mb)
S 3.5 mph
(S 6 kph)
- 1/4SM
19:15
Overcast
45°F / 7°C 45°F / 7°C 100% 30.42 in
(1030 mb)
SW 5.8 mph
(SW 9 kph)
- 1/2SM
18:55
Overcast
45°F / 7°C 45°F / 7°C 100% 30.42 in
(1030 mb)
SSE 6.9 mph
(SSE 11 kph)
- 1 3/4SM
18:35
Overcast
45°F / 7°C 45°F / 7°C 100% 30.39 in
(1029 mb)
SSE 4.6 mph
(SSE 7 kph)
- 1SM
18:15
Overcast
45°F / 7°C 43°F / 6°C 93% 30.42 in
(1030 mb)
Calm - 3SM
17:55
Overcast
45°F / 7°C 43°F / 6°C 93% 30.42 in
(1030 mb)
SSE 3.5 mph
(SSE 6 kph)
- 10SM
17:35
Overcast
45°F / 7°C 43°F / 6°C 93% 30.42 in
(1030 mb)
S 3.5 mph
(S 6 kph)
- 10SM
17:15
Overcast
45°F / 7°C 43°F / 6°C 93% 30.42 in
(1030 mb)
S 4.6 mph
(S 7 kph)
- 10SM
16:55
Overcast
45°F / 7°C 45°F / 7°C 100% 30.42 in
(1030 mb)
SSE 3.5 mph
(SSE 6 kph)
- 10SM
16:35
Overcast
45°F / 7°C 45°F / 7°C 100% 30.42 in
(1030 mb)
SSE 3.5 mph
(SSE 6 kph)
- 10SM
16:15
Overcast
45°F / 7°C 45°F / 7°C 100% 30.42 in
(1030 mb)
S 4.6 mph
(S 7 kph)
- 10SM
15:55
Overcast
45°F / 7°C 45°F / 7°C 100% 30.42 in
(1030 mb)
SE 3.5 mph
(SE 6 kph)
- 10SM
15:35
Overcast
45°F / 7°C 45°F / 7°C 100% 30.42 in
(1030 mb)
SSE 5.8 mph
(SSE 9 kph)
- 10SM
15:15
Overcast
45°F / 7°C 45°F / 7°C 100% 30.42 in
(1030 mb)
S 10.4 mph
(S 17 kph)
- 10SM
14:55
Overcast
45°F / 7°C 45°F / 7°C 100% 30.42 in
(1030 mb)
S 6.9 mph
(S 11 kph)
- 10SM
14:35
Overcast
45°F / 7°C 45°F / 7°C 100% 30.39 in
(1029 mb)
S 5.8 mph
(S 9 kph)
- 10SM
14:15
Overcast
45°F / 7°C 43°F / 6°C 93% 30.42 in
(1030 mb)
S 6.9 mph
(S 11 kph)
- 10SM
13:55
Overcast
45°F / 7°C 43°F / 6°C 93% 30.42 in
(1030 mb)
S 8.1 mph
(S 13 kph)
- 10SM
13:35
Overcast
45°F / 7°C 45°F / 7°C 100% 30.42 in
(1030 mb)
S 5.8 mph
(S 9 kph)
- 10SM
13:15
Mostly Cloudy
45°F / 7°C 43°F / 6°C 93% 30.42 in
(1030 mb)
S 10.4 mph
(S 17 kph)
- 10SM
12:55
Mostly Cloudy
45°F / 7°C 43°F / 6°C 93% 30.42 in
(1030 mb)
S 10.4 mph
(S 17 kph)
- 10SM
12:35
Overcast
45°F / 7°C 43°F / 6°C 93% 30.39 in
(1029 mb)
S 8.1 mph
(S 13 kph)
- 10SM
12:15
Overcast
45°F / 7°C 43°F / 6°C 93% 30.42 in
(1030 mb)
S 12.7 mph
(S 20 kph)
- 10SM
11:55
Overcast
45°F / 7°C 45°F / 7°C 100% 30.39 in
(1029 mb)
SSE 10.4 mph
(SSE 17 kph)
- 10SM
11:35
Overcast
45°F / 7°C 45°F / 7°C 100% 30.39 in
(1029 mb)
S 9.2 mph
(S 15 kph)
- 10SM
11:15
Overcast
45°F / 7°C 45°F / 7°C 100% 30.39 in
(1029 mb)
S 8.1 mph
(S 13 kph)
- 10SM
10:55
Overcast
45°F / 7°C 45°F / 7°C 100% 30.39 in
(1029 mb)
S 6.9 mph
(S 11 kph)
- 10SM
10:35
Overcast
45°F / 7°C 45°F / 7°C 100% 30.39 in
(1029 mb)
S 6.9 mph
(S 11 kph)
- 10SM
10:15
Overcast
45°F / 7°C 45°F / 7°C 100% 30.39 in
(1029 mb)
S 9.2 mph
(S 15 kph)
- 10SM
09:55
Overcast
45°F / 7°C 45°F / 7°C 100% 30.39 in
(1029 mb)
S 8.1 mph
(S 13 kph)
- 10SM
09:35
Overcast
45°F / 7°C 45°F / 7°C 100% 30.36 in
(1028 mb)
S 6.9 mph
(S 11 kph)
- 10SM
09:15
Mostly Cloudy
43°F / 6°C 43°F / 6°C 100% 30.36 in
(1028 mb)
S 6.9 mph
(S 11 kph)
- 10SM
08:55
Mostly Cloudy
43°F / 6°C 41°F / 5°C 93% 30.36 in
(1028 mb)
S 8.1 mph
(S 13 kph)
- 10SM
08:35
Overcast
43°F / 6°C 43°F / 6°C 100% 30.33 in
(1027 mb)
S 9.2 mph
(S 15 kph)
- 10SM
08:15
Overcast
43°F / 6°C 41°F / 5°C 93% 30.33 in
(1027 mb)
SW 5.8 mph
(SW 9 kph)
- 8SM
07:55
Overcast
43°F / 6°C 43°F / 6°C 100% 30.33 in
(1027 mb)
SW 5.8 mph
(SW 9 kph)
- 10SM
07:35
Overcast
43°F / 6°C 43°F / 6°C 100% 30.33 in
(1027 mb)
S 6.9 mph
(S 11 kph)
- 10SM
07:15
Overcast
41°F / 5°C 39°F / 4°C 93% 30.3 in
(1026 mb)
SW 8.1 mph
(SW 13 kph)
- 10SM
06:55
Overcast
41°F / 5°C 41°F / 5°C 100% 30.3 in
(1026 mb)
SSE 6.9 mph
(SSE 11 kph)
- 10SM
06:35
Mostly Cloudy
41°F / 5°C 41°F / 5°C 100% 30.27 in
(1025 mb)
S 12.7 mph
(S 20 kph)
- 10SM
06:15
Mostly Cloudy
43°F / 6°C 41°F / 5°C 93% 30.3 in
(1026 mb)
S 12.7 mph
(S 20 kph)
- 10SM
05:55
Partly Cloudy
41°F / 5°C 41°F / 5°C 100% 30.27 in
(1025 mb)
SSE 13.8 mph
(SSE 22 kph)
- 10SM
05:35
Mostly Cloudy
41°F / 5°C 41°F / 5°C 100% 30.27 in
(1025 mb)
S 10.4 mph
(S 17 kph)
- 10SM
05:15
Mostly Cloudy
41°F / 5°C 41°F / 5°C 100% 30.27 in
(1025 mb)
SW 9.2 mph
(SW 15 kph)
- 10SM
04:55
Partly Cloudy
39°F / 4°C 39°F / 4°C 100% 30.27 in
(1025 mb)
SSE 9.2 mph
(SSE 15 kph)
- 10SM
04:35
Clear
39°F / 4°C 37°F / 3°C 93% 30.24 in
(1024 mb)
S 12.7 mph
(S 20 kph)
- 10SM
04:15
Partly Cloudy
41°F / 5°C 39°F / 4°C 93% 30.24 in
(1024 mb)
S 12.7 mph
(S 20 kph)
- 10SM
03:55
Overcast
43°F / 6°C 41°F / 5°C 93% 30.24 in
(1024 mb)
S 15 mph
(S 24 kph)
- 10SM
03:35
Overcast
43°F / 6°C 43°F / 6°C 100% 30.21 in
(1023 mb)
S 16.1 mph
(S 26 kph)
- 10SM
03:15
Overcast
43°F / 6°C 41°F / 5°C 93% 30.21 in
(1023 mb)
S 10.4 mph
(S 17 kph)
- 10SM
02:55
Mostly Cloudy
41°F / 5°C 41°F / 5°C 100% 30.21 in
(1023 mb)
S 12.7 mph
(S 20 kph)
- 10SM
02:35
Partly Cloudy
41°F / 5°C 41°F / 5°C 100% 30.18 in
(1022 mb)
S 13.8 mph
(S 22 kph)
- 10SM
02:15
Clear
41°F / 5°C 39°F / 4°C 93% 30.18 in
(1022 mb)
S 18.4 mph
(S 30 kph)
- 10SM
01:55
Clear
41°F / 5°C 39°F / 4°C 93% 30.15 in
(1021 mb)
S 12.7 mph
(S 20 kph)
0.01 in
(0.25 mm)
10SM
01:35
Clear
41°F / 5°C 39°F / 4°C 93% 30.15 in
(1021 mb)
S 15 mph
(S 24 kph)
- 10SM
01:15
Clear
41°F / 5°C 39°F / 4°C 93% 30.15 in
(1021 mb)
S 12.7 mph
(S 20 kph)
- 10SM
00:55
Partly Cloudy
43°F / 6°C 39°F / 4°C 87% 30.12 in
(1020 mb)
S 12.7 mph
(S 20 kph)
0.10 in
(2.54 mm)
10SM
00:35
Mostly Cloudy
43°F / 6°C 39°F / 4°C 87% 30.15 in
(1021 mb)
SW 15 mph
(SW 24 kph)
0.10 in
(2.54 mm)
10SM
00:15
Overcast
43°F / 6°C 41°F / 5°C 93% 30.15 in
(1021 mb)
SW 9.2 mph
(SW 15 kph)
0.04 in
(1.02 mm)
9SM
Time Weather Temperature Dewpoint Humidity Pressure Winds Precip Visibility


Weather for websites

WeatherForYou.com, LLC is not responsible for any damages or problems caused by this service. Current weather conditions are obtained from the closest station including government and personal stations which may have varying degrees of accuracy. Weather forecasts are derived from the NOAA NDFD. Like all things, this site belongs to Jesus Christ... He just trusts us to maintain it. If you have any questions or comments email webmaster@weatherforyou.com

Copyright © 2016, WeatherForYou.com LLC. All rights reserved.